[[{"header":{"parameterUnit":"m.s-1","parameterCategory":1,"la1":30.2991,"la2":30.254,"lo1":-89.0895,"lo2":-89.0444,"dy":0.0017,"dx":0.0017,"nx":28,"ny":28,"refTime":"2024-03-10T21:00:00:Z","depth":0,"parameterNumber":2,"parameterNumberName":"U-component_of_WINDS"},"data":[0,0,0,0,0,0,0,0,0,0,0,0,0,0,0,0,0,0,0,0,0,0,0,0,0,0,0,0,0,0,0,0,0,0,0,0,0,0,0,0,0,0,0,0,0,0,0,0,0,0,0,0,0,0,0,0,0,0,-0.3595,-0.3595,0,-0.3562,-0.3561,-0.3561,-0.3495,-0.3494,-0.3493,-0.3491,-0.3458,-0.3459,-0.3459,0,0,0,0,0,0,0,0,0,0,0,0,0,-0.3604,-0.3605,-0.3595,-0.3595,-0.3595,-0.3562,-0.3561,-0.3561,-0.3495,-0.3494,-0.3492,-0.3491,-0.3458,-0.3459,-0.3459,0,0,0,0,0,0,0,0,0,0,0,0,0,-0.3589,-0.3605,-0.3595,-0.3558,-0.3554,-0.3562,-0.3561,-0.3561,-0.3496,-0.3494,-0.3492,-0.349,-0.3458,-0.3459,-0.3459,-0.3501,0,0,-0.3461,-0.3461,0,0,0,0,0,0,0,0,-0.359,-0.3588,-0.3564,-0.356,-0.3556,-0.3531,-0.3552,-0.3541,-0.3496,-0.3518,-0.3491,-0.3489,-0.3484,-0.3482,-0.348,-0.35,-0.3498,-0.3461,-0.3461,-0.3461,-0.3461,0,0,0,0,0,0,0,-0.3591,-0.359,-0.3582,-0.3564,-0.3559,-0.3543,-0.3539,-0.355,-0.3512,-0.3516,-0.3511,-0.3508,-0.3482,-0.348,-0.3479,-0.3498,-0.3461,-0.3461,-0.3462,-0.3462,-0.3551,-0.3553,0,0,0,0,0,0,-0.3597,-0.3591,-0.3583,-0.3581,-0.3568,-0.3545,-0.354,-0.3541,-0.3512,-0.3506,-0.351,-0.3505,-0.348,-0.3479,-0.3478,-0.3525,-0.3461,-0.3462,-0.3462,-0.3549,-0.3551,-0.3554,0,0,0,0,0,0,-0.3598,-0.3597,-0.3584,-0.3585,-0.3582,-0.3547,-0.3548,-0.3541,-0.3539,-0.3507,-0.35,-0.3515,-0.3479,-0.3477,-0.3496,-0.3523,-0.3462,-0.3462,-0.3546,-0.355,-0.3552,-0.3621,0,0,0,0,0,0,-0.3598,-0.3598,-0.3613,-0.3585,-0.3582,-0.3603,-0.355,-0.3542,-0.354,-0.3534,-0.351,-0.3505,-0.3477,-0.3496,-0.3497,-0.3523,-0.3463,-0.3544,-0.3548,-0.3551,-0.3616,-0.3626,-0.3635,0,0,0,0,0,-0.3599,-0.3634,-0.3614,-0.3613,-0.36,-0.3605,-0.3603,-0.357,-0.3543,-0.3558,-0.3538,-0.3505,-0.352,-0.3498,-0.3499,-0.3526,-0.3542,-0.3547,-0.3551,-0.3612,-0.3624,-0.3635,0,0,0,0,0,0,-0.3666,-0.3629,-0.3607,-0.3634,-0.3623,-0.3594,-0.3612,-0.3584,-0.358,-0.3575,-0.3534,-0.353,-0.3554,-0.3542,-0.3517,-0.3565,-0.3526,-0.3531,-0.3572,-0.3584,-0.3593,-0.3595,-0.3463,0,0,0,0,0,-0.3683,-0.369,-0.3658,-0.3685,-0.368,-0.3647,-0.3648,-0.3624,-0.3611,-0.3606,-0.3586,-0.3575,-0.3578,-0.358,-0.358,-0.3614,-0.3609,-0.3633,-0.3643,-0.365,-0.3655,-0.3673,-0.3684,-0.3569,-0.3569,-0.3569,0,0,-0.372,-0.3701,-0.3708,-0.3698,-0.3686,-0.3694,-0.3644,-0.3654,-0.366,-0.3607,-0.3624,-0.361,-0.3595,-0.3622,-0.3633,-0.3612,-0.3686,-0.3656,-0.3663,-0.3663,-0.3679,-0.369,-0.37,-0.3572,-0.3571,-0.3571,0,0,-0.3792,-0.3778,-0.3799,-0.3789,-0.3772,-0.375,-0.3755,-0.373,-0.3718,-0.3734,-0.3695,-0.3702,-0.3706,-0.3698,-0.3694,-0.3763,-0.3733,-0.3764,-0.3812,-0.383,-0.3839,-0.3847,-0.3873,-0.3882,-0.3769,-0.3769,-0.3769,0,-0.384,-0.385,-0.3814,-0.3826,-0.3824,-0.3776,-0.3798,-0.379,-0.3774,-0.3774,-0.3751,-0.3756,-0.3743,-0.3767,-0.3784,-0.3783,-0.3788,-0.3767,-0.3841,-0.3848,-0.3855,-0.3879,-0.3888,-0.3773,-0.3773,-0.3772,-0.3772,0,-0.391,-0.3918,-0.3937,-0.3923,-0.3922,-0.3939,-0.3906,-0.391,-0.3886,-0.3867,-0.3884,-0.3867,-0.3863,-0.3867,-0.3844,-0.3889,-0.3877,-0.3848,-0.3808,-0.3871,-0.3892,-0.3901,-0.3779,-0.3777,-0.3776,-0.3775,0,0,-0.4022,-0.3988,-0.3996,-0.3989,-0.3968,-0.3973,-0.3989,-0.3984,-0.3989,-0.398,-0.3992,-0.3998,-0.3971,-0.3967,-0.3942,-0.3958,-0.4015,-0.3928,-0.3927,-0.3945,-0.4064,-0.4086,-0.4097,-0.3995,-0.3997,-0.3998,-0.4065,0,-0.4089,-0.4113,-0.4081,-0.4113,-0.4119,-0.4075,-0.4089,-0.4078,-0.406,-0.4064,-0.4045,-0.4049,-0.4014,-0.4011,-0.4025,-0.4005,-0.4038,-0.4,-0.4007,-0.4008,-0.4012,-0.4108,-0.4131,-0.4195,-0.4074,-0.4075,-0.4076,0,-0.417,-0.4165,-0.4197,-0.4174,-0.4175,-0.4188,-0.4182,-0.4186,-0.4173,-0.4159,-0.4155,-0.4125,-0.414,-0.4101,-0.4121,-0.4095,-0.4096,-0.4087,-0.4089,-0.4089,-0.4046,-0.411,-0.4215,-0.4225,-0.4089,-0.4088,-0.4087,0,-0.4249,-0.425,-0.4269,-0.4265,-0.4238,-0.4249,-0.4238,-0.4223,-0.4222,-0.4218,-0.4217,-0.4214,-0.4213,-0.4212,-0.4183,-0.4157,-0.4207,-0.4165,-0.4196,-0.4197,-0.4208,-0.4208,-0.4315,-0.4209,-0.4209,-0.4209,-0.4209,0,-0.4327,-0.4349,-0.4305,-0.4317,-0.434,-0.4304,-0.4327,-0.4313,-0.4299,-0.4308,-0.427,-0.4279,-0.424,-0.4246,-0.4223,-0.4244,-0.4243,-0.4233,-0.4227,-0.4236,-0.4238,-0.4237,-0.4232,-0.4211,-0.4211,-0.421,-0.421,0,-0.4419,-0.4391,-0.4409,-0.4382,-0.4376,-0.4395,-0.4372,-0.4382,-0.4363,-0.4374,-0.4375,-0.4344,-0.4349,-0.432,-0.4319,-0.4304,-0.4335,-0.4321,-0.434,-0.4335,-0.4368,-0.4366,-0.4479,-0.4492,-0.4377,-0.4378,-0.4379,0,-0.4471,-0.4487,-0.4462,-0.4465,-0.4456,-0.4461,-0.4461,-0.4426,-0.4428,-0.4414,-0.4426,-0.4427,-0.4426,-0.4436,-0.4414,-0.4413,-0.4399,-0.4439,-0.4399,-0.4408,-0.44,-0.44,-0.4402,-0.4447,-0.4449,-0.445,-0.4451,0,-0.4566,-0.4551,-0.4552,-0.4548,-0.4549,-0.4544,-0.4537,-0.4542,-0.4504,-0.4508,-0.4512,-0.4511,-0.451,-0.4512,-0.4508,-0.4497,-0.4468,-0.4463,-0.4471,-0.4481,-0.4491,-0.4487,-0.4363,-0.4461,-0.446,-0.4459,-0.4459,-0.4458,-0.464,-0.4652,-0.4636,-0.4639,-0.463,-0.4624,-0.4633,-0.4614,-0.4616,-0.4613,-0.4592,-0.46,-0.4587,-0.4578,-0.457,-0.4576,-0.4558,-0.4568,-0.4571,-0.4574,-0.458,-0.449,-0.4575,-0.4575,-0.4575,-0.4574,-0.4574,0,-0.4733,-0.4721,-0.4724,-0.4715,-0.4717,-0.4689,-0.468,-0.4684,-0.4691,-0.4681,-0.4681,-0.4686,-0.4688,-0.4666,-0.4666,-0.4675,-0.4662,-0.4676,-0.4675,-0.4673,-0.4597,-0.4591,-0.4687,-0.4687,-0.4687,-0.4687,-0.4687,-0.4687,-0.4782,-0.4801,-0.4785,-0.4799,-0.4787,-0.4794,-0.4791,-0.4786,-0.4778,-0.4785,-0.4787,-0.4772,-0.4758,-0.4756,-0.4757,-0.4751,-0.4752,-0.4771,-0.4761,-0.469,-0.4679,-0.4668,-0.4662,-0.4772,-0.4772,-0.4837,-0.4838,-0.4838]},{"header":{"parameterUnit":"m.s-1","parameterCategory":1,"la1":30.2991,"la2":30.254,"lo1":-89.0895,"lo2":-89.0444,"dy":0.0017,"dx":0.0017,"nx":28,"ny":28,"refTime":"2024-03-10T21:00:00:Z","depth":0,"parameterNumber":3,"parameterNumberName":"V-component_of_WINDS"},"data":[0,0,0,0,0,0,0,0,0,0,0,0,0,0,0,0,0,0,0,0,0,0,0,0,0,0,0,0,0,0,0,0,0,0,0,0,0,0,0,0,0,0,0,0,0,0,0,0,0,0,0,0,0,0,0,0,0,0,1.5616,1.5615,0,1.5581,1.5581,1.558,1.5532,1.5531,1.5531,1.553,1.5495,1.5495,1.5494,0,0,0,0,0,0,0,0,0,0,0,0,0,1.5639,1.5639,1.5616,1.5615,1.5615,1.5581,1.5581,1.558,1.5532,1.5531,1.553,1.5529,1.5495,1.5495,1.5494,0,0,0,0,0,0,0,0,0,0,0,0,0,1.5619,1.5639,1.5616,1.5587,1.5584,1.5581,1.5581,1.558,1.5533,1.5531,1.553,1.5529,1.5495,1.5495,1.5494,1.5517,0,0,1.5494,1.5493,0,0,0,0,0,0,0,0,1.562,1.5618,1.5591,1.5589,1.5586,1.556,1.5576,1.5559,1.5533,1.5552,1.553,1.5528,1.5517,1.5515,1.5511,1.5516,1.5514,1.5494,1.5493,1.5493,1.5493,0,0,0,0,0,0,0,1.5622,1.562,1.5602,1.5591,1.5588,1.5575,1.5571,1.5573,1.5542,1.555,1.5547,1.5543,1.5515,1.5512,1.551,1.5514,1.5494,1.5493,1.5493,1.5493,1.5533,1.5534,0,0,0,0,0,0,1.5628,1.5621,1.5603,1.5601,1.56,1.5576,1.5571,1.5569,1.5542,1.5537,1.5544,1.5541,1.5513,1.5511,1.5509,1.5532,1.5493,1.5493,1.5493,1.5532,1.5533,1.5535,0,0,0,0,0,0,1.5628,1.5626,1.5604,1.561,1.5606,1.5577,1.5575,1.5569,1.5565,1.5537,1.5532,1.5546,1.5512,1.5509,1.5515,1.553,1.5493,1.5493,1.553,1.5532,1.5534,1.5581,0,0,0,0,0,0,1.5629,1.5627,1.5636,1.5611,1.5606,1.5612,1.5576,1.5569,1.5565,1.5561,1.5538,1.5533,1.5511,1.5516,1.5515,1.5529,1.5493,1.5529,1.5531,1.5533,1.5578,1.5584,1.5589,0,0,0,0,0,1.563,1.5651,1.5636,1.5635,1.5617,1.5613,1.561,1.5584,1.5567,1.5575,1.5556,1.5533,1.5529,1.5517,1.5515,1.553,1.5528,1.5531,1.5533,1.5575,1.5583,1.5589,0,0,0,0,0,0,1.5679,1.5647,1.5631,1.5644,1.5631,1.5605,1.5614,1.5594,1.5586,1.5582,1.555,1.5546,1.5555,1.5543,1.553,1.555,1.5525,1.5527,1.5557,1.5564,1.557,1.5572,1.5492,0,0,0,0,0,1.5691,1.5691,1.5663,1.5677,1.5672,1.5644,1.5642,1.5623,1.5609,1.5603,1.5585,1.5572,1.5568,1.5565,1.556,1.5576,1.5569,1.5585,1.5591,1.5596,1.5598,1.5604,1.561,1.5544,1.5543,1.5543,0,0,1.5717,1.5699,1.5701,1.5687,1.5675,1.5675,1.564,1.5642,1.5641,1.5603,1.5607,1.5594,1.5577,1.5588,1.5591,1.5578,1.5615,1.56,1.5604,1.5603,1.5607,1.5614,1.5619,1.5545,1.5545,1.5545,0,0,1.5762,1.575,1.5759,1.5748,1.573,1.5711,1.5714,1.569,1.5679,1.5683,1.5654,1.5652,1.5646,1.5634,1.5628,1.5668,1.5646,1.5667,1.5697,1.5703,1.5708,1.5713,1.5726,1.5731,1.567,1.567,1.567,0,1.5796,1.5795,1.5767,1.577,1.5764,1.5729,1.5738,1.5728,1.571,1.5706,1.5692,1.5681,1.5668,1.5674,1.5684,1.568,1.5681,1.5669,1.571,1.5714,1.5718,1.573,1.5735,1.5673,1.5672,1.5672,1.5672,0,1.5837,1.5836,1.5846,1.5828,1.5823,1.583,1.5802,1.58,1.5782,1.5764,1.5767,1.575,1.5739,1.5739,1.5722,1.5743,1.5735,1.5716,1.569,1.5727,1.5738,1.5742,1.5676,1.5675,1.5675,1.5674,0,0,1.5912,1.5878,1.5882,1.5873,1.585,1.5849,1.5853,1.5842,1.5841,1.5829,1.5831,1.5825,1.5807,1.5799,1.578,1.5785,1.5816,1.5765,1.5764,1.5773,1.5836,1.585,1.5855,1.5801,1.5802,1.5803,1.5837,0,1.5953,1.5958,1.5932,1.5943,1.5942,1.5908,1.5911,1.5897,1.5881,1.5877,1.5859,1.5855,1.5832,1.5826,1.583,1.5811,1.5828,1.5809,1.5801,1.5801,1.5805,1.5861,1.5876,1.5909,1.5841,1.5842,1.5842,0,1.6,1.599,1.6002,1.5977,1.5975,1.5978,1.5965,1.5962,1.5945,1.5933,1.5924,1.5901,1.5902,1.5878,1.5879,1.5866,1.5862,1.5852,1.5852,1.585,1.5823,1.5859,1.5919,1.5924,1.5849,1.5848,1.5848,0,1.6053,1.6042,1.6047,1.604,1.6012,1.6014,1.6003,1.5984,1.5979,1.5968,1.5964,1.5953,1.5947,1.5939,1.5914,1.5899,1.5916,1.5891,1.5905,1.5906,1.5909,1.5909,1.5969,1.5909,1.5909,1.5909,1.5909,0,1.61,1.6107,1.6069,1.6072,1.6079,1.605,1.6058,1.6043,1.6026,1.6025,1.5996,1.5995,1.5962,1.5957,1.5937,1.594,1.5938,1.5927,1.5921,1.5928,1.593,1.5924,1.5921,1.591,1.591,1.591,1.5909,0,1.6159,1.6134,1.6137,1.6109,1.6102,1.6109,1.6085,1.6086,1.6067,1.6066,1.6064,1.6035,1.6028,1.6001,1.5988,1.5975,1.5983,1.5973,1.5988,1.5984,1.6,1.5998,1.6057,1.6062,1.6001,1.6001,1.6002,0,1.619,1.6195,1.6168,1.6164,1.6154,1.615,1.6143,1.6114,1.6109,1.6089,1.6092,1.6083,1.6073,1.6063,1.6041,1.603,1.6018,1.604,1.6016,1.6023,1.6017,1.6016,1.6016,1.6044,1.6045,1.6046,1.6046,0,1.6247,1.6234,1.6227,1.6215,1.6209,1.6198,1.6185,1.6184,1.6151,1.6147,1.6139,1.6132,1.6117,1.6108,1.6093,1.608,1.6057,1.6054,1.6056,1.6063,1.6072,1.6066,1.6,1.6053,1.6052,1.6051,1.6051,1.6051,1.6292,1.6294,1.6275,1.6267,1.6255,1.6243,1.6242,1.6223,1.6216,1.6202,1.6185,1.6179,1.616,1.6138,1.6126,1.612,1.6108,1.6112,1.6113,1.6114,1.6117,1.6074,1.6118,1.6118,1.6117,1.6117,1.6117,0,1.6346,1.6332,1.6325,1.6308,1.6302,1.6281,1.6266,1.6262,1.6257,1.6241,1.6232,1.6222,1.6212,1.6188,1.6176,1.6175,1.6165,1.6173,1.6172,1.6169,1.6129,1.6128,1.6182,1.6182,1.6182,1.6182,1.6182,1.6182,1.6374,1.6376,1.636,1.6355,1.6341,1.6334,1.6327,1.6316,1.6303,1.6293,1.6284,1.6269,1.625,1.6235,1.6225,1.6218,1.6214,1.6225,1.6215,1.6178,1.6172,1.6166,1.6164,1.6225,1.6225,1.6255,1.6255,1.6255]}]]